Estación municipal de St. Julià de Vilatorta (Osona, E.N.Guilleries-Savassona)

Consulta los datos en tiempo real de la estación municipal de St. Julià de Vilatorta





Hora UTC 11:05
Temperatura 28.8 ºC
Subsuelo 10 cm 37.9 ºC
Humedad 35.3 %
Presión 1019.3 hPa
Pluja 0.0 mm
Velocidad viento 4.6 km/h
Dirección viento WSW
Radiación solar 843.0 W/m²
Fuel 4.8 %

Webcam

Datos diarios 2026-08-31



Hora UTC (invierno +1h; verano +2h)
Temperatura (ºC) Humedad (%) Presión (hPa) Velocidad viento (km/h) Precipitación (mm) Fuel (%) Radiación solar (W/m²)
Hora UTC Aire Subsuelo 10 cm Humedad Presión Vel. Dir. Vel. Max Dir. Intent. máx 5 min. Fuel Rad. Sol.
00:05 16.3 12.7 66.0 1017.9 2.6 E 2.6 E 0.0 5.6 0.5
00:10 16.3 12.5 66.4 1017.9 2.8 ESE 5.4 ESE 0.0 5.6 0.7
00:15 16.2 12.4 67.4 1017.8 1.6 SSE 3.4 SE 0.0 5.7 0.5
00:20 16.0 12.4 68.4 1017.8 2.8 SE 4.6 SE 0.0 5.7 0.5
00:25 15.8 12.4 68.7 1017.8 1.8 E 3.2 ESE 0.0 5.7 0.2
00:30 15.9 12.3 68.2 1017.9 1.1 SSW 3.1 ESE 0.0 5.7 0.9
00:35 15.9 12.1 68.4 1017.8 2.1 ESE 3.1 ESE 0.0 5.7 0.5
00:40 15.9 12.1 68.8 1017.8 1.6 SSE 3.1 ESE 0.0 5.8 0.4
00:45 15.7 12.0 69.8 1017.8 1.8 SE 3.0 ESE 0.0 5.8 0.9
00:50 15.5 11.9 70.4 1017.8 1.2 SSE 2.1 SE 0.0 5.8 0.7
00:55 15.4 11.8 71.4 1017.8 1.1 SE 2.3 SSE 0.0 5.8 0.7
01:00 15.2 11.7 72.0 1017.9 1.2 ESE 2.0 SE 0.0 5.9 0.8
01:05 15.1 11.5 72.6 1017.9 1.8 SE 3.1 SE 0.0 5.7 1.0
01:10 15.1 11.4 72.7 1017.9 3.0 SE 4.1 SE 0.0 5.9 0.8
01:15 15.0 11.4 73.2 1017.9 1.9 ESE 3.0 ESE 0.0 6.0 0.8
01:20 15.1 11.4 72.7 1017.9 2.9 SE 3.8 SSE 0.0 5.9 1.0
01:25 15.2 11.4 72.2 1017.9 3.4 SE 5.4 SE 0.0 6.0 0.6
01:30 15.5 11.3 70.7 1017.9 2.5 SE 5.1 SE 0.0 6.0 0.6
01:35 15.5 11.3 70.7 1017.9 1.9 ESE 2.7 ESE 0.0 6.0 0.5
01:40 15.6 11.3 70.5 1017.9 3.1 SE 5.9 SSE 0.0 6.1 0.8
01:45 15.8 11.2 70.3 1017.9 3.1 SE 5.8 SSE 0.0 6.1 0.8
01:50 15.9 11.3 70.4 1017.9 2.8 SE 4.6 SE 0.0 6.1 0.7
01:55 15.8 11.3 71.2 1017.9 3.2 ESE 4.8 SE 0.0 6.1 0.7
02:00 15.6 11.4 71.9 1017.9 3.5 E 5.7 E 0.0 6.2 0.4
02:05 15.4 11.5 73.2 1017.9 3.4 ESE 6.3 E 0.0 6.2 0.3
02:10 15.4 11.5 73.5 1017.8 1.1 SE 2.4 ESE 0.0 6.2 0.6
02:15 15.3 11.5 73.7 1017.8 3.3 ENE 5.9 ENE 0.0 6.2 0.7
02:20 15.2 11.6 74.5 1017.8 2.0 E 3.6 E 0.0 6.3 0.2
02:25 15.2 11.6 74.6 1017.8 3.5 ESE 4.6 E 0.0 6.3 0.4
02:30 15.2 11.6 74.9 1017.8 1.8 SSE 4.8 WNW 0.0 6.3 0.2
02:35 15.1 11.6 75.0 1017.9 2.3 W 6.0 WNW 0.0 6.3 0.1
02:40 14.9 11.5 75.6 1018.0 2.0 SW 3.0 W 0.0 6.3 0.1
02:45 14.8 11.4 76.4 1018.0 2.1 SSE 3.9 SSE 0.0 6.4 0.2
02:50 14.7 11.3 76.7 1018.0 2.5 SE 3.7 SE 0.0 6.4 0.4
02:55 14.7 11.2 76.8 1018.0 2.3 SSE 3.5 SE 0.0 6.4 0.2
03:00 14.7 11.0 76.5 1018.0 1.6 SSE 3.3 SSE 0.0 6.5 0.1
03:05 14.6 10.8 77.0 1017.9 1.7 SE 2.7 SE 0.0 6.5 0.1
03:10 14.6 10.6 77.3 1017.9 1.5 SE 4.0 ESE 0.0 6.5 0.6
03:15 14.5 10.5 77.8 1017.9 1.8 SE 3.0 SE 0.0 6.6 0.4
03:20 14.3 10.4 78.7 1017.9 1.1 SSE 2.0 S 0.0 6.6 0.6
03:25 14.1 10.3 79.8 1017.9 2.0 SSE 3.7 SSE 0.0 6.6 0.4
03:30 13.9 10.4 80.9 1018.0 1.9 SE 3.5 SSE 0.0 6.7 0.6
03:35 14.0 10.3 81.2 1018.0 2.1 SE 3.6 SE 0.0 6.7 0.7
03:40 14.0 10.2 81.4 1018.0 2.0 ESE 4.0 E 0.0 6.8 0.6
03:45 14.1 10.1 81.3 1018.0 3.2 E 4.2 E 0.0 6.8 0.4
03:50 14.1 10.1 81.4 1018.0 2.7 ESE 4.4 ESE 0.0 6.8 0.7
03:55 14.1 10.0 80.9 1018.0 1.9 SE 2.8 SE 0.0 6.9 0.6
04:00 13.9 10.1 81.5 1018.0 1.7 ESE 3.1 SE 0.0 6.9 0.6
04:05 14.0 10.0 82.1 1018.0 2.2 ESE 4.7 E 0.0 7.0 0.9
04:10 14.1 10.1 81.6 1018.0 2.5 ESE 4.6 E 0.0 7.0 0.9
04:15 14.1 10.1 81.2 1018.0 2.1 ESE 3.2 ESE 0.0 7.0 0.4
04:20 14.0 10.1 81.5 1018.0 2.6 ESE 4.4 E 0.0 7.1 0.6
04:25 14.1 10.0 81.5 1018.0 2.1 SE 4.0 SE 0.0 7.1 0.5
04:30 14.1 10.0 81.3 1018.0 3.4 E 5.1 ESE 0.0 7.2 0.5
04:35 14.0 10.1 81.9 1018.0 2.3 SE 3.8 ESE 0.0 7.2 0.6
04:40 14.1 10.0 81.6 1018.0 2.4 ESE 3.6 ESE 0.0 7.2 0.5
04:45 14.1 10.0 81.5 1018.0 2.5 ESE 4.9 ESE 0.0 7.3 0.7
04:50 14.0 10.0 81.7 1018.0 2.6 SE 4.9 ESE 0.0 7.3 0.5
04:55 13.9 10.1 82.6 1018.0 3.1 ESE 5.3 E 0.0 7.4 0.6
05:00 13.9 10.2 82.4 1018.0 4.0 SE 6.2 SSE 0.0 7.4 0.7
05:05 13.8 10.5 82.8 1018.1 2.8 ESE 5.6 SE 0.0 7.5 0.8
05:10 13.9 10.5 82.7 1018.1 2.1 ESE 6.0 SE 0.0 7.5 1.4
05:15 13.9 10.5 82.7 1018.1 1.9 SE 3.3 SSE 0.0 7.5 2.5
05:20 13.9 10.4 83.0 1018.2 1.8 SE 2.9 SE 0.0 7.5 4.4
05:25 14.0 10.3 82.8 1018.3 2.1 SE 2.8 SE 0.0 7.6 6.8
05:30 14.0 10.2 82.6 1018.3 1.6 SE 2.7 SE 0.0 7.6 9.4
05:35 13.9 10.2 83.1 1018.4 2.0 ESE 2.8 ESE 0.0 7.6 12.2
05:40 13.9 10.3 83.1 1018.4 1.8 SE 3.0 E 0.0 7.7 14.6
05:45 14.0 10.3 83.1 1018.4 1.8 SE 3.0 SE 0.0 7.7 17.7
05:50 14.0 10.4 83.1 1018.4 2.0 SE 3.7 SE 0.0 7.7 20.5
05:55 14.2 10.6 82.6 1018.5 1.9 SE 3.6 SSE 0.0 7.8 23.3
06:00 14.2 10.8 82.7 1018.5 1.6 SE 2.6 SE 0.0 7.9 25.4
06:05 14.2 11.0 83.1 1018.5 0.9 SE 2.3 SE 0.0 7.9 27.4
06:10 14.1 11.2 83.8 1018.5 0.6 ESE 1.4 SE 0.0 7.8 30.0
06:15 14.2 11.3 84.0 1018.6 1.2 E 2.9 NE 0.0 7.9 32.2
06:20 14.3 11.5 83.7 1018.6 1.0 SSE 1.9 ENE 0.0 8.0 34.5
06:25 14.3 11.7 83.4 1018.7 0.7 SSE 1.3 SSE 0.0 7.9 36.6
06:30 14.4 11.8 83.4 1018.8 0.8 NE 1.6 NNE 0.0 8.0 39.1
06:35 14.9 12.0 81.5 1018.8 0.6 NE 1.4 NE 0.0 8.0 139.9
06:40 15.2 12.2 79.4 1018.8 0.6 ESE 1.8 SSE 0.0 8.0 193.8
06:45 15.4 12.5 78.8 1018.8 2.1 SSE 3.1 SSE 0.0 8.0 208.6
06:50 15.9 12.8 77.1 1018.9 1.7 SSE 2.6 SSE 0.0 8.0 223.8
06:55 16.9 13.5 73.5 1018.9 1.3 S 2.4 SSW 0.0 8.0 238.9
07:00 18.3 14.5 67.3 1018.9 1.8 SSW 3.6 SSW 0.0 8.0 254.5
07:05 19.5 15.2 62.5 1018.9 1.8 SSW 2.3 SSW 0.0 8.0 270.2
07:10 20.6 16.0 58.7 1018.9 0.9 SE 2.6 S 0.0 7.9 284.9
07:15 20.8 17.2 58.0 1019.0 0.8 ENE 2.2 WNW 0.0 7.9 300.2
07:20 21.0 18.0 57.6 1019.0 2.0 W 4.3 WNW 0.0 7.9 315.1
07:25 21.2 18.9 57.7 1019.0 1.1 ESE 2.1 SE 0.0 7.8 330.8
07:30 21.3 20.0 57.3 1019.0 2.1 NNW 5.2 NW 0.0 7.8 346.4
07:35 20.0 21.1 60.7 1019.0 3.6 N 5.3 N 0.0 7.7 362.6
07:40 19.7 21.8 62.3 1019.0 1.9 N 3.8 NW 0.0 7.7 378.0
07:45 20.2 22.2 61.0 1019.0 4.0 NW 6.8 WNW 0.0 7.7 394.6
07:50 19.9 22.3 62.0 1019.0 3.5 WNW 6.1 WNW 0.0 7.6 412.5
07:55 19.9 22.2 62.0 1019.1 3.7 WNW 6.7 NW 0.0 7.6 427.6
08:00 20.0 22.2 62.0 1019.1 3.6 W 6.7 WNW 0.0 7.6 443.7
08:05 20.4 22.4 61.0 1019.2 3.4 NW 6.0 WNW 0.0 7.5 459.2
08:10 20.4 22.6 60.1 1019.2 4.4 N 6.9 NNW 0.0 7.5 473.4
08:15 20.3 22.9 60.0 1019.3 2.5 N 5.1 N 0.0 7.4 487.1
08:20 20.9 23.3 58.7 1019.3 2.0 NNW 4.8 NNW 0.0 7.4 499.3
08:25 21.3 23.8 57.3 1019.4 1.7 NNW 5.0 NW 0.0 7.4 513.4
08:30 22.3 24.6 55.8 1019.4 1.6 WNW 4.1 ENE 0.0 7.3 528.2
08:35 22.8 25.5 55.0 1019.4 1.8 W 5.1 NNW 0.0 7.3 543.6
08:40 23.3 26.3 54.1 1019.5 2.2 SSW 3.9 SSW 0.0 7.3 557.6
08:45 23.9 27.1 52.7 1019.5 2.0 NW 4.3 ESE 0.0 7.2 571.4
08:50 23.4 27.7 52.0 1019.5 3.1 NNE 5.8 N 0.0 7.2 584.9
08:55 23.2 28.4 53.3 1019.6 3.3 N 8.0 N 0.0 7.1 598.1
09:00 23.3 28.6 53.0 1019.6 3.6 WNW 6.7 WNW 0.0 7.1 612.9
09:05 23.8 29.0 50.0 1019.6 3.8 W 6.7 WSW 0.0 7.0 625.9
09:10 24.0 29.1 48.9 1019.6 3.5 WSW 6.3 W 0.0 7.0 638.2
09:15 24.3 29.2 48.4 1019.7 3.3 W 6.4 W 0.0 6.9 650.9
09:20 24.5 29.5 48.3 1019.7 3.2 NW 6.8 WNW 0.0 6.9 663.4
09:25 24.6 29.7 48.0 1019.7 4.1 NW 7.1 NNW 0.0 6.8 675.6
09:30 24.3 29.9 48.0 1019.7 3.3 N 6.2 N 0.0 6.7 685.2
09:35 24.5 30.3 47.2 1019.7 3.4 NNE 6.0 NNE 0.0 6.7 694.3
09:40 24.9 30.7 46.7 1019.7 2.5 NNE 3.9 N 0.0 6.7 703.5
09:45 25.2 30.9 45.2 1019.7 2.6 N 5.9 WNW 0.0 6.6 713.2
09:50 25.3 31.1 44.5 1019.6 2.6 NE 6.9 0.0 6.6 721.3
09:55 25.6 31.2 44.6 1019.6 4.0 NNW 7.4 NNW 0.0 6.5 733.6
10:00 25.8 31.6 44.4 1019.5 4.9 N 9.7 NNE 0.0 6.5 744.0
10:05 26.0 32.3 43.7 1019.5 5.2 NNE 9.7 N 0.0 6.4 752.6
10:10 26.6 33.1 42.1 1019.5 2.1 NNE 5.9 E 0.0 6.4 759.6
10:15 27.3 34.3 39.5 1019.5 5.8 SSW 16.7 S 0.0 6.3 773.4
10:20 27.7 34.4 33.2 1019.4 8.5 SSW 22.5 SSW 0.0 6.1 790.3
10:25 28.1 34.8 31.4 1019.4 8.9 SW 18.9 SSW 0.0 6.1 801.0
10:30 28.1 35.0 31.6 1019.5 4.9 WSW 14.8 SSW 0.0 6.0 806.0
10:35 28.4 35.5 33.4 1019.5 7.8 SW 19.6 SW 0.0 5.9 815.0
10:40 28.4 35.9 33.8 1019.5 6.4 WNW 13.9 NW 0.0 5.9 819.0
10:45 28.4 36.3 33.8 1019.5 4.6 WSW 12.5 W 0.0 5.8 821.0
10:50 28.0 36.9 36.5 1019.5 6.9 W 14.5 WNW 0.0 5.7 826.0
10:55 28.6 37.1 34.2 1019.4 9.1 SSW 19.4 SW 0.0 5.7 838.0
11:00 28.5 37.4 33.8 1019.4 5.0 WSW 15.1 SSW 0.0 4.9 839.0
11:05 28.8 37.9 35.3 1019.3 4.6 WSW 12.2 SSW 0.0 4.8 843.0
Máxima 28.8 37.9 84.0 1019.7 9.1 SSW 22.5 SSW 0.0 8.0 843.0
Mínima 13.8 10.0 31.4 1017.8 4.8
Total 0.0